Weather History for Mason, MI

Change the Weather History Date:

Friday, January 25, 2013

  Actual Average (KLAN) Record (KLAN)
Temperature  
Mean Temperature 16 °F 23 °F  
Max Temperature 21 °F 30 °F 65 °F (1950)
Min Temperature 12 °F 16 °F -16 °F (2004)
Degree Days  
Heating Degree Days 48 42  
Month to date heating degree days 1041  
Since 1 July heating degree days 3593  
Cooling Degree Days 0 0  
Month to date cooling degree days 0  
Year to date cooling degree days 0  
Moisture  
Dew Point 12 °F    
Average Humidity 78    
Maximum Humidity 91    
Minimum Humidity 62    
Precipitation  
Precipitation 0.00 in 0.05 in 0.80 in (1867)
Month to date precipitation 1.38  
Year to date precipitation 1.38  
Snow  
Snow 0.00 in 0.40 in 8.00 in (1867)
Month to date snowfall 11.2  
Since 1 July snowfall 28.0  
Snow Depth -    
Sea Level Pressure  
Sea Level Pressure 30.13 in    
Wind  
Wind Speed 4 mph (SSE)    
Max Wind Speed 10 mph    
Max Gust Speed -    
Visibility 6 miles    
Events Snow    
T = Trace of Precipitation, MM = Missing Value Source: NWS Daily Summary

Daily Weather History Graph

Daily Weather History Graph

Search for Another Location

Airport:

Trip Planner

Search our weather history database for the weather conditions in past years. The results will help you decide how hot, cold, wet, or windy it might be!

Date:

Astronomy

Jan. 25, 2013 Rise Set
Actual Time 7:58 AM EST 5:42 PM EST
Civil Twilight 7:27 AM EST 6:12 PM EST
Nautical Twilight 6:53 AM EST 6:47 PM EST
Astronomical Twilight 6:20 AM EST 7:20 PM EST
Moon 4:39 PM EST (1/25) 6:37 AM EST (1/25)
Length of Visible Light 10h 45m
Length of Day
9h 44m
Waxing Gibbous, 98% of the Moon is Illuminated
Jan 25
Waxing Gibbous
Jan 26
Full
Feb 3
Last Quarter
Feb 10
New
Feb 17
First Quarter

Hourly Weather History & Observations

Time (EST) Temp. Windchill Dew Point Humidity Pressure Visibility Wind Dir Wind Speed Gust Speed Precip Events Conditions
12:14 AM 12.0 °F - 1.6 °F 63% 30.45 in 10.0 mi Calm Calm - N/A   Scattered Clouds
12:35 AM 12.0 °F - 1.8 °F 64% 30.43 in 10.0 mi Calm Calm - N/A   Scattered Clouds
12:55 AM 12.2 °F - 2.1 °F 64% 30.42 in 10.0 mi Calm Calm - N/A   Clear
1:14 AM 12.4 °F - 2.1 °F 64% 30.42 in 10.0 mi Calm Calm - N/A   Mostly Cloudy
1:35 AM 12.7 °F - 2.1 °F 63% 30.42 in 10.0 mi Calm Calm - N/A   Overcast
1:54 AM 12.9 °F 6.9 °F 2.5 °F 63% 30.41 in 10.0 mi SE 3.5 mph - N/A   Overcast
2:14 AM 13.1 °F 7.1 °F 2.5 °F 63% 30.40 in 10.0 mi SE 3.5 mph - N/A   Overcast
2:35 AM 13.5 °F 5.8 °F 3.0 °F 63% 30.39 in 10.0 mi SE 4.6 mph - N/A   Overcast
2:54 AM 13.8 °F 4.9 °F 3.0 °F 62% 30.37 in 10.0 mi SSE 5.8 mph - N/A   Overcast
3:14 AM 14.0 °F 5.1 °F 3.2 °F 62% 30.36 in 10.0 mi SSE 5.8 mph - N/A   Overcast
3:35 AM 14.0 °F 5.1 °F 3.4 °F 63% 30.35 in 10.0 mi SSE 5.8 mph - N/A   Overcast
3:54 AM 14.4 °F 6.9 °F 3.9 °F 63% 30.34 in 10.0 mi SSE 4.6 mph - N/A   Overcast
4:15 AM 14.5 °F 8.8 °F 3.7 °F 62% 30.32 in 10.0 mi SE 3.5 mph - N/A   Overcast
4:35 AM 14.7 °F 9.0 °F 4.3 °F 63% 30.31 in 10.0 mi SE 3.5 mph - N/A   Overcast
4:54 AM 14.7 °F 5.9 °F 5.0 °F 65% 30.30 in 10.0 mi SE 5.8 mph - N/A   Overcast
5:15 AM 14.7 °F 4.8 °F 5.7 °F 68% 30.28 in 10.0 mi SE 6.9 mph - N/A   Overcast
5:35 AM 14.9 °F 6.1 °F 7.0 °F 71% 30.26 in 5.0 mi SE 5.8 mph - N/A Snow Light Snow
5:54 AM 14.4 °F 5.5 °F 9.5 °F 81% 30.25 in 1.2 mi SE 5.8 mph - N/A Snow Light Snow
6:15 AM 14.4 °F 5.5 °F 10.0 °F 83% 30.23 in 7.0 mi ESE 5.8 mph - N/A   Overcast
6:35 AM 14.5 °F 5.7 °F 9.5 °F 80% 30.22 in 10.0 mi ESE 5.8 mph - N/A   Overcast
6:54 AM 14.7 °F 3.8 °F 9.5 °F 80% 30.22 in 10.0 mi ESE 8.1 mph - N/A   Overcast
7:15 AM 14.9 °F 4.0 °F 10.0 °F 81% 30.21 in 10.0 mi SE 8.1 mph - N/A   Overcast
7:35 AM 15.3 °F 4.4 °F 10.4 °F 81% 30.20 in 10.0 mi SE 8.1 mph - N/A   Overcast
7:54 AM 15.4 °F 6.8 °F 10.4 °F 80% 30.19 in 10.0 mi SE 5.8 mph - N/A   Overcast
8:35 AM 15.6 °F 5.9 °F 10.8 °F 81% 30.16 in 10.0 mi SE 6.9 mph - N/A   Overcast
8:54 AM 15.8 °F 6.1 °F 10.8 °F 80% 30.16 in 7.0 mi SE 6.9 mph - N/A   Overcast
9:15 AM 15.8 °F 5.1 °F 11.8 °F 84% 30.16 in 1.2 mi SSE 8.1 mph - N/A Snow Light Snow
9:35 AM 16.2 °F 6.5 °F 12.2 °F 84% 30.15 in 1.8 mi SSE 6.9 mph - N/A Snow Light Snow
9:54 AM 16.3 °F 4.9 °F 12.2 °F 84% 30.14 in 1.8 mi SSE 9.2 mph - N/A Snow Light Snow
10:15 AM 16.7 °F 7.2 °F 12.9 °F 85% 30.14 in 1.2 mi SSE 6.9 mph - N/A Snow Light Snow
10:34 AM 17.1 °F 5.8 °F 12.7 °F 83% 30.12 in 1.5 mi SSE 9.2 mph - N/A Snow Light Snow
10:55 AM 17.4 °F 5.4 °F 13.1 °F 83% 30.12 in 2.0 mi SSE 10.4 mph - N/A Snow Light Snow
11:15 AM 17.8 °F 6.6 °F 12.6 °F 80% 30.11 in 3.0 mi SSE 9.2 mph - N/A Snow Light Snow
11:34 AM 18.3 °F 7.3 °F 12.7 °F 79% 30.11 in 4.0 mi South 9.2 mph - N/A Snow Light Snow
11:55 AM 18.5 °F 6.8 °F 12.6 °F 78% 30.08 in 7.0 mi South 10.4 mph - N/A Snow Light Snow
12:15 PM 19.2 °F 7.7 °F 12.9 °F 76% 30.06 in 5.0 mi SSE 10.4 mph - N/A Snow Light Snow
12:34 PM 19.4 °F 8.6 °F 12.0 °F 73% 30.06 in 10.0 mi South 9.2 mph - N/A   Overcast
12:55 PM 20.1 °F 11.3 °F 12.2 °F 71% 30.05 in 10.0 mi SSE 6.9 mph - N/A Snow Light Snow
1:15 PM 19.9 °F 10.1 °F 12.4 °F 72% 30.03 in 7.0 mi South 8.1 mph - N/A Snow Light Snow
1:35 PM 20.1 °F 9.5 °F 12.7 °F 73% 30.02 in 7.0 mi SSE 9.2 mph - N/A Snow Light Snow
1:55 PM 20.3 °F 13.8 °F 12.9 °F 73% 30.01 in 5.0 mi South 4.6 mph - N/A Snow Light Snow
2:15 PM 20.3 °F 10.6 °F 13.1 °F 74% 30.00 in 7.0 mi South 8.1 mph - N/A Snow Light Snow
2:35 PM 20.7 °F 11.9 °F 13.3 °F 73% 29.99 in 7.0 mi South 6.9 mph - N/A Snow Light Snow
2:55 PM 20.5 °F 11.7 °F 13.8 °F 75% 29.98 in 3.0 mi SSE 6.9 mph - N/A Snow Light Snow
3:15 PM 20.5 °F 14.0 °F 14.5 °F 78% 29.98 in 2.5 mi SSE 4.6 mph - N/A Snow Light Snow
3:35 PM 20.7 °F 11.9 °F 14.7 °F 78% 29.97 in 3.0 mi SSE 6.9 mph - N/A Snow Light Snow
3:55 PM 21.0 °F 12.4 °F 14.9 °F 77% 29.97 in 4.0 mi South 6.9 mph - N/A Snow Light Snow
4:15 PM 20.8 °F 12.1 °F 15.4 °F 80% 29.97 in 2.5 mi South 6.9 mph - N/A Snow Light Snow
4:35 PM 20.8 °F 12.1 °F 15.6 °F 80% 29.96 in 2.5 mi SSE 6.9 mph - N/A Snow Light Snow
4:55 PM 20.7 °F 13.0 °F 16.2 °F 83% 29.96 in 2.5 mi SSE 5.8 mph - N/A Snow Light Snow
5:15 PM 20.7 °F 15.8 °F 16.2 °F 83% 29.97 in 5.0 mi South 3.5 mph - N/A Snow Light Snow
5:35 PM 20.7 °F 15.8 °F 16.0 °F 82% 29.98 in 7.0 mi South 3.5 mph - N/A Snow Light Snow
5:55 PM 20.7 °F - 16.5 °F 84% 29.99 in 1.0 mi Calm Calm - N/A Snow Light Snow
6:15 PM 20.3 °F - 17.1 °F 87% 29.98 in 0.8 mi Calm Calm - N/A Snow Snow
6:35 PM 20.1 °F - 17.4 °F 89% 29.98 in 1.2 mi Calm Calm - N/A Snow Light Snow
6:55 PM 19.9 °F - 17.4 °F 90% 29.99 in 2.0 mi Calm Calm - N/A Snow Light Snow
7:15 PM 19.9 °F - 17.6 °F 91% 29.99 in 2.0 mi Calm Calm - N/A Snow Light Snow
7:35 PM 19.8 °F 14.7 °F 17.4 °F 91% 29.99 in 3.0 mi SSE 3.5 mph - N/A Snow Light Snow
7:55 PM 19.8 °F 14.7 °F 17.4 °F 91% 29.98 in 4.0 mi SSE 3.5 mph - N/A Snow Light Snow
8:15 PM 19.8 °F 14.7 °F 17.2 °F 90% 29.99 in 4.0 mi SSE 3.5 mph - N/A Snow Light Snow
8:35 PM 19.9 °F 12.1 °F 17.4 °F 90% 29.98 in 3.0 mi SSE 5.8 mph - N/A Snow Light Snow
8:56 PM 19.9 °F 12.1 °F 17.4 °F 90% 29.99 in 3.0 mi SSE 5.8 mph - N/A Snow Light Snow
9:15 PM 19.9 °F 13.4 °F 17.2 °F 89% 29.99 in 2.5 mi SSE 4.6 mph - N/A Snow Light Snow
9:35 PM 19.9 °F 14.9 °F 17.4 °F 90% 29.99 in 2.5 mi South 3.5 mph - N/A Snow Light Snow
9:56 PM 19.9 °F 12.1 °F 17.2 °F 89% 29.99 in 4.0 mi South 5.8 mph - N/A Snow Light Snow
10:15 PM 19.9 °F - 17.2 °F 89% 29.99 in 4.0 mi Calm Calm - N/A Snow Light Snow
10:35 PM 19.9 °F - 17.2 °F 89% 29.99 in 4.0 mi Calm Calm - N/A Snow Light Snow
10:56 PM 19.8 °F - 17.2 °F 90% 29.99 in 4.0 mi Calm Calm - N/A Snow Light Snow
11:15 PM 20.1 °F - 17.6 °F 90% 30.00 in 5.0 mi Calm Calm - N/A Snow Light Snow
11:55 PM 19.9 °F - 17.6 °F 91% 30.01 in 7.0 mi Calm Calm - N/A   Overcast